Overview Statistics Trail Chart Weather Telemetry Raw packets
 

This is the latest recevied weather packets stored in our database for station/object VA2RBQ-7. If no packets are shown the sender has not sent any weather packets the latest 10 day(s).

<< 24 25 26 27 28 29 30 >>
Time Temp. Humidity Pressure Rain* Wind** Luminosity Snow
1788378747 13.89° C 55% 1025.2 hPa 0 mm - - -
1788378444 13.89° C 56% 1025.2 hPa 0 mm - - -
1788378141 17.22° C 56% 1025.3 hPa 0 mm - - -
1788377839 16.11° C 56% 1025.3 hPa 0 mm - - -
1788377536 16.11° C 56% 1025.3 hPa 0 mm - - -
1788377234 14.44° C 56% 1025.3 hPa 0 mm - - -
1788376931 14.44° C 56% 1025.3 hPa 0 mm - - -
1788376628 14.44° C 56% 1025.3 hPa 0 mm - - -
1788376326 14.44° C 56% 1025.4 hPa 0 mm - - -
1788376023 14.44° C 57% 1025.3 hPa 0 mm - - -
1788375721 14.44° C 57% 1025.3 hPa 0 mm - - -
1788375418 15.56° C 57% 1025.5 hPa 0 mm - - -
1788375115 15° C 57% 1025.5 hPa 0 mm - - -
1788374813 16.67° C 57% 1025.4 hPa 0 mm - - -
1788374510 16.67° C 57% 1025.4 hPa 0 mm - - -
1788374208 17.78° C 58% 1025.3 hPa 0 mm - - -
1788373905 15.56° C 57% 1025.4 hPa 0 mm - - -
1788373602 16.11° C 58% 1025.4 hPa 0 mm - - -
1788373300 15.56° C 58% 1025.5 hPa 0 mm - - -
1788372997 14.44° C 58% 1025.5 hPa 0 mm - - -
1788372695 15° C 58% 1025.6 hPa 0 mm - - -
1788372392 16.11° C 58% 1025.5 hPa 0 mm - - -
1788372089 18.89° C 58% 1025.6 hPa 0 mm - - -
1788371787 17.22° C 58% 1025.6 hPa 0 mm - - -
1788371484 16.11° C 58% 1025.6 hPa 0 mm - - -

* Rain since midnight (hover to see other rain measurements)
** Current wind speed in m/s (hover to see current wind gust speed)